When you browse on this site, cookies collect data to enhance your experience and personalize the content and advertising you see.
Visit our Privacy Policy to learn more. By continuing to use the site, you agree to this use of cookies and data.
  • En España
  • Lista de países
  • Para 7 días
  • Temperatura del agua
  • Mapa Satelital
  • El tiempo en el mapa
  • Informadores
  • user-avatar
    Iniciar sesión

    Tiempo cada hora Perth

    Hoy, 22 Febrero, Viernes

    Tiempo Temperatura Precipitaciones Viento Presión Humedad
    00:00 +20°C° 0 mm 2 mps 758 mmHg 86%
    01:00 +20°C° 0 mm 2 mps 758 mmHg 86%
    02:00 +21°C° 0 mm 1 mps 758 mmHg 85%
    03:00 +20°C° 0 mm 1 mps 758 mmHg 86%
    04:00 +20°C° 0 mm 1 mps 758 mmHg 87%
    05:00 +20°C° 0 mm 1 mps 758 mmHg 88%
    06:00 +21°C° 0 mm 1 mps 758 mmHg 83%
    07:00 +22°C° 0 mm 1 mps 758 mmHg 78%
    08:00 +23°C° 0 mm 1 mps 759 mmHg 74%
    09:00 +24°C° 0 mm 2 mps 759 mmHg 65%
    10:00 +26°C° 0 mm 2 mps 759 mmHg 56%
    11:00 +28°C° 0 mm 3 mps 759 mmHg 47%
    12:00 +29°C° 0 mm 3 mps 758 mmHg 44%
    13:00 +29°C° 0 mm 4 mps 758 mmHg 42%
    14:00 +30°C° 0 mm 4 mps 758 mmHg 39%
    15:00 +29°C° 0 mm 4 mps 758 mmHg 40%
    16:00 +28°C° 0 mm 4 mps 757 mmHg 40%
    17:00 +28°C° 0 mm 4 mps 757 mmHg 41%
    18:00 +26°C° 0 mm 3 mps 758 mmHg 50%
    19:00 +24°C° 0 mm 3 mps 758 mmHg 58%
    20:00 +21°C° 0 mm 2 mps 758 mmHg 67%
    21:00 +21°C° 0 mm 2 mps 758 mmHg 71%
    22:00 +20°C° 0 mm 2 mps 759 mmHg 74%
    23:00 +20°C° 0 mm 2 mps 759 mmHg 78%

    Mañana, 23 Febrero, Sábado

    Tiempo Temperatura Precipitaciones Viento Presión Humedad
    00:00 +21°C° 0 mm 1 mps 759 mmHg 79%
    01:00 +20°C° 0 mm 1 mps 759 mmHg 80%
    02:00 +20°C° 0 mm 1 mps 758 mmHg 81%
    03:00 +20°C° 0 mm 1 mps 759 mmHg 81%
    04:00 +18°C° 0 mm 0 mps 759 mmHg 81%
    05:00 +17°C° 0 mm 0 mps 759 mmHg 81%
    06:00 +19°C° 0 mm 0 mps 759 mmHg 76%
    07:00 +20°C° 0 mm 0 mps 759 mmHg 71%
    08:00 +21°C° 0 mm 0 mps 760 mmHg 66%
    09:00 +25°C° 0 mm 1 mps 760 mmHg 61%
    10:00 +27°C° 0 mm 2 mps 760 mmHg 56%
    11:00 +28°C° 0 mm 2 mps 760 mmHg 50%
    12:00 +29°C° 0 mm 3 mps 759 mmHg 49%
    13:00 +29°C° 0 mm 4 mps 759 mmHg 47%
    14:00 +30°C° 0 mm 4 mps 759 mmHg 45%
    15:00 +29°C° 0 mm 5 mps 759 mmHg 49%
    16:00 +28°C° 0 mm 5 mps 759 mmHg 52%
    17:00 +27°C° 0 mm 5 mps 759 mmHg 56%
    18:00 +26°C° 0 mm 4 mps 759 mmHg 63%
    19:00 +24°C° 0 mm 3 mps 760 mmHg 70%
    20:00 +22°C° 0 mm 3 mps 760 mmHg 78%
    21:00 +21°C° 0 mm 2 mps 761 mmHg 79%
    22:00 +21°C° 0 mm 2 mps 761 mmHg 80%
    23:00 +21°C° 0 mm 2 mps 761 mmHg 81%

    Pasado mañana, 24 Febrero, Domingo

    Tiempo Temperatura Precipitaciones Viento Presión Humedad
    00:00 +21°C° 0 mm 2 mps 761 mmHg 83%
    01:00 +20°C° 0 mm 2 mps 761 mmHg 85%
    02:00 +20°C° 0 mm 2 mps 761 mmHg 87%
    03:00 +20°C° 0 mm 2 mps 761 mmHg 87%
    04:00 +19°C° 0 mm 2 mps 761 mmHg 88%
    05:00 +19°C° 0 mm 2 mps 761 mmHg 89%
    06:00 +21°C° 0 mm 2 mps 761 mmHg 81%
    07:00 +22°C° 0 mm 3 mps 762 mmHg 73%
    08:00 +24°C° 0 mm 3 mps 762 mmHg 66%
    09:00 +27°C° 0 mm 2 mps 762 mmHg 56%
    10:00 +29°C° 0 mm 2 mps 762 mmHg 47%
    11:00 +32°C° 0 mm 2 mps 762 mmHg 38%
    12:00 +34°C° 0 mm 2 mps 761 mmHg 37%
    13:00 +35°C° 0 mm 3 mps 761 mmHg 36%
    14:00 +36°C° 0 mm 4 mps 760 mmHg 35%
    15:00 +34°C° 0 mm 4 mps 760 mmHg 40%
    16:00 +33°C° 0 mm 5 mps 760 mmHg 45%
    17:00 +30°C° 0 mm 6 mps 759 mmHg 50%
    18:00 +28°C° 0 mm 5 mps 760 mmHg 54%
    19:00 +26°C° 0 mm 4 mps 760 mmHg 59%
    20:00 +25°C° 0 mm 4 mps 761 mmHg 63%
    21:00 +25°C° 0 mm 4 mps 761 mmHg 62%
    22:00 +25°C° 0 mm 4 mps 761 mmHg 60%
    23:00 +25°C° 0 mm 4 mps 762 mmHg 59%

    25 Febrero, Lunes

    Tiempo Temperatura Precipitaciones Viento Presión Humedad
    00:00 +23°C° 0 mm 5 mps 761 mmHg 62%
    01:00 +23°C° 0 mm 5 mps 761 mmHg 64%
    02:00 +23°C° 0 mm 6 mps 761 mmHg 67%
    03:00 +23°C° 0 mm 6 mps 761 mmHg 68%
    04:00 +22°C° 0 mm 6 mps 761 mmHg 69%
    05:00 +22°C° 0 mm 6 mps 761 mmHg 70%
    06:00 +23°C° 0 mm 6 mps 761 mmHg 67%
    07:00 +24°C° 0 mm 6 mps 762 mmHg 63%
    08:00 +26°C° 0 mm 6 mps 762 mmHg 59%
    09:00 +28°C° 0 mm 5 mps 762 mmHg 52%
    10:00 +32°C° 0 mm 4 mps 761 mmHg 44%
    11:00 +35°C° 0 mm 3 mps 761 mmHg 36%
    12:00 +36°C° 0 mm 3 mps 760 mmHg 32%
    13:00 +38°C° 0 mm 3 mps 760 mmHg 29%
    14:00 +40°C° 0 mm 3 mps 759 mmHg 25%
    15:00 +38°C° 0 mm 4 mps 758 mmHg 28%
    16:00 +37°C° 0 mm 5 mps 758 mmHg 30%
    17:00 +36°C° 0 mm 5 mps 758 mmHg 32%
    18:00 +34°C° 0 mm 5 mps 758 mmHg 38%
    19:00 +32°C° 0 mm 5 mps 759 mmHg 43%
    20:00 +29°C° 0 mm 5 mps 759 mmHg 48%
    21:00 +28°C° 0 mm 4 mps 759 mmHg 52%
    22:00 +27°C° 0 mm 3 mps 759 mmHg 56%
    23:00 +26°C° 0 mm 3 mps 759 mmHg 59%

    26 Febrero, Martes

    Tiempo Temperatura Precipitaciones Viento Presión Humedad
    00:00 +26°C° 0 mm 3 mps 759 mmHg 58%
    01:00 +26°C° 0 mm 2 mps 759 mmHg 57%
    02:00 +26°C° 0 mm 2 mps 759 mmHg 55%
    03:00 +25°C° 0 mm 2 mps 758 mmHg 58%
    04:00 +25°C° 0 mm 2 mps 758 mmHg 62%
    05:00 +25°C° 0 mm 2 mps 758 mmHg 65%
    06:00 +26°C° 0 mm 1 mps 758 mmHg 60%
    07:00 +27°C° 0 mm 1 mps 759 mmHg 55%
    08:00 +29°C° 0 mm 1 mps 759 mmHg 51%
    09:00 +31°C° 0 mm 2 mps 759 mmHg 45%
    10:00 +34°C° 0 mm 2 mps 759 mmHg 39%
    11:00 +36°C° 0 mm 3 mps 758 mmHg 33%
    12:00 +36°C° 0 mm 4 mps 758 mmHg 34%
    13:00 +36°C° 0 mm 5 mps 757 mmHg 34%
    14:00 +36°C° 0 mm 5 mps 757 mmHg 35%
    15:00 +35°C° 0 mm 5 mps 757 mmHg 37%
    16:00 +34°C° 0 mm 5 mps 757 mmHg 40%
    17:00 +33°C° 0 mm 5 mps 757 mmHg 43%
    18:00 +30°C° 0 mm 5 mps 757 mmHg 51%
    19:00 +28°C° 0 mm 4 mps 758 mmHg 60%
    20:00 +26°C° 0 mm 4 mps 758 mmHg 68%
    21:00 +25°C° 0 mm 4 mps 758 mmHg 69%
    22:00 +25°C° 0 mm 3 mps 758 mmHg 71%
    23:00 +24°C° 0 mm 3 mps 758 mmHg 72%

    27 Febrero, Miércoles

    Tiempo Temperatura Precipitaciones Viento Presión Humedad
    00:00 +24°C° 0 mm 2 mps 758 mmHg 71%
    01:00 +24°C° 0 mm 2 mps 758 mmHg 70%
    02:00 +24°C° 0 mm 2 mps 758 mmHg 70%
    03:00 +24°C° 0 mm 2 mps 758 mmHg 72%
    04:00 +24°C° 0 mm 2 mps 758 mmHg 75%
    05:00 +22°C° 0 mm 3 mps 758 mmHg 78%
    06:00 +24°C° 0 mm 3 mps 758 mmHg 73%
    07:00 +25°C° 0 mm 3 mps 758 mmHg 69%
    08:00 +26°C° 0 mm 3 mps 759 mmHg 65%
    09:00 +29°C° 0 mm 3 mps 759 mmHg 56%
    10:00 +31°C° 0 mm 3 mps 758 mmHg 48%
    11:00 +35°C° 0 mm 3 mps 758 mmHg 40%
    12:00 +35°C° 0 mm 4 mps 758 mmHg 38%
    13:00 +36°C° 0 mm 5 mps 757 mmHg 37%
    14:00 +36°C° 0 mm 5 mps 757 mmHg 36%
    15:00 +35°C° 0 mm 6 mps 756 mmHg 39%
    16:00 +34°C° 0 mm 6 mps 756 mmHg 41%
    17:00 +33°C° 0 mm 6 mps 756 mmHg 44%
    18:00 +30°C° 0 mm 6 mps 756 mmHg 48%
    19:00 +29°C° 0 mm 5 mps 757 mmHg 52%
    20:00 +27°C° 0 mm 4 mps 758 mmHg 56%
    21:00 +27°C° 0 mm 5 mps 758 mmHg 54%
    22:00 +28°C° 0 mm 5 mps 758 mmHg 52%
    23:00 +28°C° 0 mm 5 mps 758 mmHg 50%
    Mostrar más